Change the Weather History Date:

Monday, September 29, 2014

  Actual Average Record
Temperature  
Mean Temperature 74 °F -  
Max Temperature 83 °F 73 °F 86 °F (2011)
Min Temperature 66 °F 55 °F 51 °F (2008)
Cooling Degree Days 10    
Growing Degree Days 24 (Base 50)    
Moisture  
Dew Point 68 °F    
Average Humidity 92    
Maximum Humidity 100    
Minimum Humidity 49    
Precipitation  
Precipitation 0.31 in 0.08 in - ()
Sea Level Pressure  
Sea Level Pressure 30.16 in    
Wind  
Wind Speed 3 mph ()    
Max Wind Speed 22 mph    
Max Gust Speed 31 mph    
Visibility 6.4 miles    
Events Rain , Thunderstorm    
Averages and records for this station are not official NWS values.
T = Trace of Precipitation, MM = Missing Value Source: Averaged Metar Reports

Daily Weather History Graph

Daily Weather History Graph

Search for Another Location

Airport or City:

Trip Planner

Search our weather history database for the weather conditions in past years. The results will help you decide how hot, cold, wet, or windy it might be!

Date:

Astronomy

Sep. 29, 2014 Rise Set
Actual Time 7:43 AM CEST 7:35 PM CEST
Civil Twilight 7:16 AM CEST 8:01 PM CEST
Nautical Twilight 6:44 AM CEST 8:33 PM CEST
Astronomical Twilight 6:13 AM CEST 9:04 PM CEST
Moon 12:39 PM CEST (9/29) 10:56 PM CEST (9/29)
Length of Visible Light 12h 45m
Length of Day
11h 52m
Waxing Crescent, 25% of the Moon is Illuminated
Sep 29
Waxing Crescent
Oct 1
First Quarter
Oct 8
Full
Oct 15
Last Quarter
Oct 23
New

Hourly Weather History & Observations

Time (CEST) Temp. Heat Index Dew Point Humidity Pressure Visibility Wind Dir Wind Speed Gust Speed Precip Events Conditions
12:00 AM 70 °F - 69 °F 94% 30.17 in - NE 2.3 mph - -  
12:00 AM 69.8 °F - 68.0 °F 94% 30.15 in 6.2 mi NE 1.2 mph - N/A   Scattered Clouds
12:30 AM 69.8 °F - 68.0 °F 94% 30.15 in 6.2 mi ENE 3.5 mph - N/A   Scattered Clouds
1:00 AM 70 °F - 69 °F 94% 30.18 in - Calm Calm - -  
1:00 AM 69.8 °F - 68.0 °F 94% 30.18 in 6.2 mi Variable 1.2 mph - N/A   Scattered Clouds
1:30 AM 69.8 °F - 68.0 °F 94% 30.15 in 6.2 mi East 2.3 mph - N/A   Scattered Clouds
2:00 AM 69 °F - 68 °F 94% 30.16 in 9 mi NE 2.3 mph - -   Partly Cloudy
2:00 AM 69.8 °F - 68.0 °F 94% 30.15 in 6.2 mi Variable 1.2 mph - N/A   Scattered Clouds
2:30 AM 69.8 °F - 69.8 °F 100% 30.15 in 6.2 mi NE 3.5 mph - N/A   Scattered Clouds
3:00 AM 68 °F - 67 °F 97% 30.16 in - Calm Calm - -  
3:00 AM 69.8 °F - 69.8 °F 100% 30.15 in 6.2 mi East 3.5 mph - N/A   Scattered Clouds
3:30 AM 68.0 °F - 66.2 °F 94% 30.15 in 6.2 mi Variable 1.2 mph - N/A   Scattered Clouds
4:00 AM 68 °F - 67 °F 97% 30.14 in - Calm Calm - -   Unknown Precipitation
4:00 AM 68.0 °F - 66.2 °F 94% 30.12 in 6.2 mi NNE 2.3 mph - N/A   Scattered Clouds
5:00 AM 68 °F - 68 °F 98% 30.15 in 9 mi Calm Calm - -   Partly Cloudy
5:00 AM 68.0 °F - 66.2 °F 94% 30.12 in 6.2 mi ENE 1.2 mph - N/A   Scattered Clouds
5:30 AM 68.0 °F - 66.2 °F 94% 30.12 in 6.2 mi NNE 2.3 mph - N/A   Scattered Clouds
6:00 AM 68 °F - 67 °F 98% 30.14 in - Calm Calm - -  
6:00 AM 68.0 °F - 66.2 °F 94% 30.12 in 6.2 mi ENE 3.5 mph - N/A   Scattered Clouds
6:30 AM 68.0 °F - 66.2 °F 94% 30.12 in 6.2 mi Calm Calm - N/A   Scattered Clouds
7:00 AM 68 °F - 67 °F 96% 30.14 in - Calm Calm - -  
7:00 AM 68.0 °F - 66.2 °F 94% 30.12 in 6.2 mi East 1.2 mph - N/A   Scattered Clouds
7:30 AM 68.0 °F - 66.2 °F 94% 30.12 in 6.2 mi NE 2.3 mph - N/A   Scattered Clouds
8:00 AM 67 °F - 66 °F 96% 30.15 in 12 mi North 2.3 mph - -   Scattered Clouds
8:00 AM 66.2 °F - 64.4 °F 94% 30.12 in 6.2 mi North 2.3 mph - N/A   Partly Cloudy
8:30 AM 66.2 °F - 66.2 °F 100% 30.12 in 6.2 mi North 3.5 mph - N/A   Partly Cloudy
9:00 AM 69 °F - 68 °F 94% 30.16 in - Calm Calm - -  
9:00 AM 66.2 °F - 64.4 °F 94% 30.15 in 6.2 mi Calm Calm - N/A   Partly Cloudy
9:30 AM 66.2 °F - 64.4 °F 94% 30.15 in 6.2 mi Variable 1.2 mph - N/A Rain Rain
10:00 AM 71 °F - 69 °F 92% 30.17 in - Calm Calm - -  
10:00 AM 71.6 °F - 68.0 °F 88% 30.15 in 6.2 mi Variable 2.3 mph - N/A Rain Rain
10:30 AM 75.2 °F - 71.6 °F 89% 30.15 in 6.2 mi Variable 1.2 mph - N/A   Partly Cloudy
11:00 AM 76 °F - 71 °F 80% 30.19 in 16 mi East 2.3 mph - -   Scattered Clouds
11:00 AM 75.2 °F - 69.8 °F 83% 30.18 in 6.2 mi Variable 2.3 mph - N/A   Partly Cloudy
11:30 AM 78.8 °F - 73.4 °F 83% 30.18 in 6.2 mi ENE 8.1 mph - N/A   Partly Cloudy
12:00 PM 79 °F - 72 °F 73% 30.19 in - East 8.1 mph - -  
12:00 PM 78.8 °F - 71.6 °F 78% 30.18 in 6.2 mi ENE 8.1 mph - N/A   Partly Cloudy
12:30 PM 78.8 °F - 71.6 °F 78% 30.18 in 6.2 mi East 4.6 mph - N/A   Partly Cloudy
1:00 PM - - - %  in - Calm Calm - -  
1:00 PM 78.8 °F - 73.4 °F 83% 30.15 in 6.2 mi East 3.5 mph - N/A   Partly Cloudy
1:30 PM 80.6 °F 83.2 °F 68.0 °F 65% 30.15 in 6.2 mi ENE 4.6 mph - N/A   Partly Cloudy
2:00 PM 83 °F - 67 °F 49% 30.16 in 12 mi SSE 2.3 mph - -   Partly Cloudy
2:00 PM 80.6 °F 82.7 °F 66.2 °F 61% 30.15 in 6.2 mi Calm Calm - N/A   Scattered Clouds
2:13 PM 78.8 °F - 75.2 °F 89% 30.15 in 1.9 mi SSE 5.8 mph - N/A Rain Rain
2:30 PM 73.4 °F - 73.4 °F 100% 30.15 in 1.9 mi Variable 4.6 mph - N/A Rain Light Rain
2:43 PM 75.2 °F - 71.6 °F 89% 30.15 in 3.7 mi WNW 4.6 mph 16.1 mph N/A   Scattered Clouds
2:47 PM 75.2 °F - 73.4 °F 94% 30.15 in 0.6 mi West 6.9 mph - N/A Rain Heavy Rain
2:52 PM 69.8 °F - 69.8 °F 100% 30.15 in 0.6 mi Variable 16.1 mph 31.1 mph N/A Rain , Thunderstorm Heavy Thunderstorms and Rain
3:00 PM 68 °F - 64 °F 85% 30.17 in - ENE 13.8 mph - -   Unknown Precipitation
3:00 PM 68.0 °F - 68.0 °F 100% 30.15 in 0.8 mi NNE 21.9 mph - N/A Rain , Thunderstorm Heavy Thunderstorms and Rain
3:14 PM 66.2 °F - 66.2 °F 100% 30.15 in 3.7 mi North 12.7 mph - N/A Rain Light Rain
3:30 PM 68.0 °F - 68.0 °F 100% 30.15 in 3.7 mi North 6.9 mph - N/A   Partly Cloudy
4:00 PM 70 °F - 67 °F 88% 30.16 in - Calm Calm - -   Unknown Precipitation
4:00 PM 69.8 °F - 69.8 °F 100% 30.15 in 3.7 mi ENE 2.3 mph - N/A   Partly Cloudy
4:30 PM 69.8 °F - 69.8 °F 100% 30.15 in 6.2 mi NNW 5.8 mph - N/A   Partly Cloudy
5:00 PM 71 °F - 68 °F 89% 30.16 in 12 mi NNE 3.5 mph - -   Partly Cloudy
5:00 PM 69.8 °F - 69.8 °F 100% 30.15 in 6.2 mi North 6.9 mph - N/A   Partly Cloudy
5:30 PM 69.8 °F - 69.8 °F 100% 30.15 in 6.2 mi Variable 1.2 mph - N/A   Partly Cloudy
6:00 PM 72 °F - 69 °F 88% 30.16 in - East 3.5 mph - -   Unknown Precipitation
6:00 PM 71.6 °F - 71.6 °F 100% 30.15 in 6.2 mi East 4.6 mph - N/A   Partly Cloudy
6:30 PM 71.6 °F - 71.6 °F 100% 30.15 in 6.2 mi Calm Calm - N/A   Partly Cloudy
7:00 PM 73 °F - 69 °F 84% 30.16 in - Calm Calm - -  
7:00 PM 71.6 °F - 69.8 °F 94% 30.15 in 6.2 mi Variable 1.2 mph - N/A   Partly Cloudy
7:30 PM 71.6 °F - 69.8 °F 94% 30.15 in - Calm Calm - N/A   Clear
8:00 PM 71 °F - 69 °F 93% 30.17 in 12 mi North 2.3 mph - -   Partly Cloudy
8:00 PM 71.6 °F - 69.8 °F 94% 30.15 in - NNW 2.3 mph 15.0 mph N/A   Clear
8:30 PM 68.0 °F - 68.0 °F 100% 30.15 in - Calm Calm - N/A   Clear
9:00 PM 70 °F - 68 °F 93% 30.18 in - East 1.2 mph - -  
9:00 PM 69.8 °F - 68.0 °F 94% 30.15 in - East 1.2 mph - N/A   Clear
9:30 PM 68.0 °F - 66.2 °F 94% 30.18 in - Variable 2.3 mph - N/A   Clear
10:00 PM 68 °F - 68 °F 99% 30.19 in - East 3.5 mph - -  
10:00 PM 68.0 °F - 66.2 °F 94% 30.18 in - ENE 3.5 mph - N/A   Clear
10:30 PM 68.0 °F - 68.0 °F 100% 30.18 in - Variable 2.3 mph - N/A   Clear
11:00 PM 67 °F - 67 °F 98% 30.19 in 11 mi Calm Calm - -  
11:00 PM 66.2 °F - 66.2 °F 100% 30.18 in - NE 3.5 mph - N/A   Clear
11:30 PM 66.2 °F - 66.2 °F 100% 30.18 in - NE 6.9 mph - N/A   Clear